Flag for South Africa Weather past 2 weeks in Port Elizabeth, South Africa

70 °F

Partly sunny.

Feels Like: 70 °F
Forecast: 65 / 72 °F
Wind: 17 mph from Southwest

Location: Port Elizabeth Airport

Current Time: Dec 1, 2015 at 10:21:30 AM

Latest Report: Dec 1, 2015 at 9:00 AM

Visibility: 2 mi

Pressure: 29.80 "Hg

Humidity: 94%

Dew point: 68 °F

Location of Port ElizabethLocation

Historic Weather in Port Elizabeth — Graph


Port Elizabeth temperature yesterday

Maximum temperature yesterday: 79 °F (at 2:00 PM)
Minimum temperature yesterday: 61 °F (at 4:00 AM)
Average temperature yesterday: 71 °F

Past Weeks' High & Low Weather Summary

High79 °F (Nov 30, 2:00 PM)100% (Nov 29, 11:00 PM)30.27 "Hg (Nov 29, 11:00 PM)
Low52 °F (Nov 17, 5:00 AM)43% (Nov 18, 3:00 PM)29.62 "Hg (Nov 19, 6:00 PM)
Average65 °F74%30.00 "Hg
* Reported Nov 16 9:00 AM — Dec 1 9:00 AM, Port Elizabeth, Weather by CustomWeather, © 2015

Note: Actual official high and low records may vary slightly from our data, if they occured in-between our weather recording intervals... More about our weather records


Port Elizabeth weather history for previous 24 hours

Time TempWeatherWind HumidityBarometerVisibility
9:00 AM
Tue, Dec 1
70 °FPartly sunny.17 mph94%29.80 "Hg2 mi
8:00 AM68 °FPartly sunny.15 mph94%29.83 "Hg2 mi
6:00 AM66 °FSunny.10 mph94%29.80 "Hg10 mi
5:00 AM63 °FFog.2 mph94%29.80 "Hg1 mi
4:00 AM66 °FFog.2 mph94%29.80 "Hg0 mi
3:53 AM66 °FFog.2 mph94%29.80 "Hg0 mi
3:00 AM63 °FPassing clouds.2 mph94%29.80 "Hg4 mi
2:57 AM63 °FPassing clouds.3 mph94%29.80 "Hg4 mi
2:00 AM63 °FFog.2 mph94%29.83 "Hg0 mi
1:04 AM66 °FFog.2 mph94%29.83 "Hg0 mi
12:00 AM68 °FPassing clouds.3 mph94%29.86 "Hg5 mi
11:00 PM
Mon, Nov 30
68 °FPassing clouds.9 mph94%29.86 "Hg5 mi
10:58 PM68 °FPassing clouds.8 mph94%29.86 "Hg5 mi
10:00 PM68 °FPassing clouds.9 mph94%29.89 "Hg5 mi
9:00 PM70 °FPassing clouds.15 mph88%29.89 "Hg5 mi
8:00 PM70 °FPassing clouds.16 mph94%29.89 "Hg5 mi
7:00 PM72 °FPassing clouds.17 mph88%29.92 "Hg5 mi
6:00 PM73 °FScattered clouds.18 mph89%29.92 "HgN/A
5:00 PM75 °FScattered clouds.20 mph83%29.92 "HgN/A
4:00 PM77 °FPassing clouds.22 mph79%29.92 "HgN/A
3:00 PM77 °FPassing clouds.21 mph79%29.95 "HgN/A
2:00 PM79 °FPassing clouds.18 mph70%29.98 "HgN/A
1:00 PM77 °FPassing clouds.15 mph74%30.01 "HgN/A
12:00 PM77 °FPassing clouds.13 mph69%30.01 "HgN/A
11:00 AM77 °FPassing clouds.10 mph65%30.04 "HgN/A
10:00 AM73 °FPassing clouds.8 mph74%30.07 "HgN/A
Weather by CustomWeather, © 2015

See weather overviewHow to use our weather pages